Time,TemperatureF,DewpointF,PressureIn,WindDirection,WindDirectionDegrees,WindSpeedMPH,WindSpeedGustMPH,Humidity,HourlyPrecipIn,Conditions,Clouds,dailyrainin,SoftwareType,DateUTC
2013-05-20 00:04:00,78.1,51.4,29.80,SSE,168,3.0,8.0,8,0.00,,,0.00,meteohub,2013-05-20 05:04:00,
2013-05-20 00:09:00,77.9,50.5,29.80,SW,227,3.0,8.0,8,0.00,,,0.00,meteohub,2013-05-20 05:09:00,
2013-05-20 00:14:00,77.7,51.1,29.80,WSW,242,4.0,8.0,8,0.00,,,0.00,meteohub,2013-05-20 05:14:00,
2013-05-20 00:19:00,77.7,51.1,29.80,SE,140,3.0,7.0,8,0.00,,,0.00,meteohub,2013-05-20 05:19:00,
2013-05-20 00:24:00,77.7,51.3,29.80,SW,223,3.0,7.0,8,0.00,,,0.00,meteohub,2013-05-20 05:24:00,
2013-05-20 00:29:00,77.5,51.1,29.80,South,191,4.0,6.0,8,0.00,,,0.00,meteohub,2013-05-20 05:29:00,
2013-05-20 00:34:00,77.4,50.9,29.80,South,186,2.0,6.0,8,0.00,,,0.00,meteohub,2013-05-20 05:34:00,
2013-05-20 00:40:00,77.4,51.1,29.80,SW,217,3.0,6.0,8,0.00,,,0.00,meteohub,2013-05-20 05:40:00,
2013-05-20 00:45:00,77.4,51.1,29.80,SW,226,3.0,6.0,8,0.00,,,0.00,meteohub,2013-05-20 05:45:00,
2013-05-20 00:50:00,77.2,51.3,29.80,SW,221,0.0,6.0,8,0.00,,,0.00,meteohub,2013-05-20 05:50:00,
2013-05-20 00:55:00,77.2,51.3,29.80,SE,139,3.0,4.0,8,0.00,,,0.00,meteohub,2013-05-20 05:55:00,
2013-05-20 01:00:00,77.2,51.1,29.80,East,98,3.0,4.0,8,0.00,,,0.00,meteohub,2013-05-20 06:00:00,
2013-05-20 01:05:00,77.0,50.9,29.80,South,174,5.0,6.0,8,0.00,,,0.00,meteohub,2013-05-20 06:05:00,
2013-05-20 01:10:00,76.8,51.4,29.80,South,175,3.0,6.0,8,0.00,,,0.00,meteohub,2013-05-20 06:10:00,
2013-05-20 01:15:00,76.6,51.6,29.80,SE,129,3.0,6.0,8,0.00,,,0.00,meteohub,2013-05-20 06:15:00,
2013-05-20 01:20:00,76.5,51.6,29.80,South,190,0.0,6.0,8,0.00,,,0.00,meteohub,2013-05-20 06:20:00,
2013-05-20 01:25:00,76.3,51.8,29.80,WSW,249,0.0,5.0,8,0.00,,,0.00,meteohub,2013-05-20 06:25:00,
2013-05-20 01:30:00,76.1,51.8,29.80,SSW,209,0.0,5.0,8,0.00,,,0.00,meteohub,2013-05-20 06:30:00,
2013-05-20 01:35:00,75.9,52.0,29.80,South,169,2.0,4.0,8,0.00,,,0.00,meteohub,2013-05-20 06:35:00,
2013-05-20 01:40:00,75.9,52.0,29.80,SSW,210,3.0,4.0,8,0.00,,,0.00,meteohub,2013-05-20 06:40:00,
2013-05-20 01:45:00,75.7,51.1,29.80,South,178,4.0,4.0,8,0.00,,,0.00,meteohub,2013-05-20 06:45:00,
2013-05-20 01:50:00,75.7,51.4,29.80,SSE,157,2.0,4.0,8,0.00,,,0.00,meteohub,2013-05-20 06:50:00,
2013-05-20 01:55:00,75.6,51.4,29.80,South,181,2.0,6.0,8,0.00,,,0.00,meteohub,2013-05-20 06:55:00,
2013-05-20 02:00:00,75.6,51.4,29.80,SW,222,0.0,6.0,8,0.00,,,0.00,meteohub,2013-05-20 07:00:00,
2013-05-20 02:06:00,75.6,51.6,29.80,South,191,0.0,6.0,10,0.00,,,0.00,meteohub,2013-05-20 07:06:00,
2013-05-20 02:11:00,75.6,51.6,29.80,ESE,105,4.0,6.0,10,0.00,,,0.00,meteohub,2013-05-20 07:11:00,
2013-05-20 02:16:00,75.6,51.8,29.80,South,169,5.0,6.0,10,0.00,,,0.00,meteohub,2013-05-20 07:16:00,
2013-05-20 02:21:00,75.4,51.8,29.80,South,183,3.0,6.0,10,0.00,,,0.00,meteohub,2013-05-20 07:21:00,
2013-05-20 02:26:00,75.4,51.8,29.80,SSW,199,3.0,6.0,10,0.00,,,0.00,meteohub,2013-05-20 07:26:00,
2013-05-20 02:31:00,75.4,51.8,29.77,SSW,193,0.0,5.0,10,0.00,,,0.00,meteohub,2013-05-20 07:31:00,
2013-05-20 02:36:00,75.2,51.8,29.77,East,86,3.0,5.0,10,0.00,,,0.00,meteohub,2013-05-20 07:36:00,
2013-05-20 02:41:00,75.2,51.8,29.77,SW,235,0.0,8.0,10,0.00,,,0.00,meteohub,2013-05-20 07:41:00,
2013-05-20 02:46:00,75.2,51.8,29.77,South,186,5.0,8.0,10,0.00,,,0.00,meteohub,2013-05-20 07:46:00,
2013-05-20 02:51:00,75.0,51.8,29.77,ESE,120,0.0,8.0,11,0.00,,,0.00,meteohub,2013-05-20 07:51:00,
2013-05-20 02:56:00,75.2,52.0,29.77,North,2,4.0,7.0,10,0.00,,,0.00,meteohub,2013-05-20 07:56:00,
2013-05-20 03:01:00,75.2,52.0,29.77,SSE,152,3.0,7.0,10,0.00,,,0.00,meteohub,2013-05-20 08:01:00,
2013-05-20 03:06:00,75.2,52.0,29.77,South,170,4.0,7.0,10,0.00,,,0.00,meteohub,2013-05-20 08:06:00,
2013-05-20 03:11:00,75.2,52.5,29.77,SSW,193,5.0,7.0,10,0.00,,,0.00,meteohub,2013-05-20 08:11:00,
2013-05-20 03:16:00,75.4,52.5,29.80,SSE,166,0.0,8.0,10,0.00,,,0.00,meteohub,2013-05-20 08:16:00,
2013-05-20 03:21:00,75.6,52.5,29.80,SW,221,4.0,8.0,10,0.00,,,0.00,meteohub,2013-05-20 08:21:00,
2013-05-20 03:26:00,75.7,52.5,29.80,WSW,251,0.0,8.0,10,0.00,,,0.00,meteohub,2013-05-20 08:26:00,
2013-05-20 03:32:00,75.9,52.5,29.80,ESE,108,3.0,9.0,10,0.00,,,0.00,meteohub,2013-05-20 08:32:00,
2013-05-20 03:37:00,76.1,52.5,29.80,West,270,0.0,9.0,10,0.00,,,0.00,meteohub,2013-05-20 08:37:00,
2013-05-20 03:42:00,76.1,51.6,29.80,SSW,210,6.0,9.0,10,0.00,,,0.00,meteohub,2013-05-20 08:42:00,
2013-05-20 03:47:00,76.3,52.2,29.80,SW,231,3.0,8.0,10,0.00,,,0.00,meteohub,2013-05-20 08:47:00,
2013-05-20 03:52:00,76.3,52.2,29.80,SSE,160,3.0,8.0,10,0.00,,,0.00,meteohub,2013-05-20 08:52:00,
2013-05-20 03:57:00,76.3,52.2,29.86,WNW,282,10.0,10.0,8,0.00,,,0.00,meteohub,2013-05-20 08:57:00,
2013-05-20 04:02:00,73.9,52.2,29.86,NNE,31,6.0,11.0,8,0.00,,,0.00,meteohub,2013-05-20 09:02:00,
2013-05-20 04:07:00,70.3,52.2,29.86,WSW,249,4.0,12.0,9,0.00,,,0.00,meteohub,2013-05-20 09:07:00,
2013-05-20 04:12:00,68.0,52.2,29.89,NW,319,4.0,13.0,10,0.00,,,0.00,meteohub,2013-05-20 09:12:00,
2013-05-20 04:17:00,66.7,52.9,29.89,North,1,0.0,13.0,12,0.04,,,0.04,meteohub,2013-05-20 09:17:00,
2013-05-20 04:22:00,65.8,52.2,29.89,SW,220,6.0,13.0,18,0.04,,,0.04,meteohub,2013-05-20 09:22:00,
2013-05-20 04:27:00,65.3,52.9,29.92,NE,40,4.0,8.0,23,0.04,,,0.04,meteohub,2013-05-20 09:27:00,
2013-05-20 04:32:00,64.9,52.9,29.92,NNE,13,0.0,8.0,24,0.04,,,0.04,meteohub,2013-05-20 09:32:00,
2013-05-20 04:37:00,64.8,52.9,29.92,NNE,23,4.0,8.0,24,0.04,,,0.04,meteohub,2013-05-20 09:37:00,
2013-05-20 04:42:00,64.4,52.9,29.92,NNE,16,3.0,6.0,25,0.04,,,0.04,meteohub,2013-05-20 09:42:00,
2013-05-20 04:47:00,64.4,52.9,29.92,NNE,21,0.0,6.0,26,0.04,,,0.04,meteohub,2013-05-20 09:47:00,
2013-05-20 04:52:00,64.2,52.9,29.92,NNE,21,0.0,5.0,26,0.04,,,0.04,meteohub,2013-05-20 09:52:00,
2013-05-20 04:58:00,64.0,52.9,29.89,NNE,20,3.0,4.0,27,0.04,,,0.04,meteohub,2013-05-20 09:58:00,
2013-05-20 05:03:00,63.9,52.7,29.89,NNE,20,0.0,4.0,27,0.04,,,0.04,meteohub,2013-05-20 10:03:00,
2013-05-20 05:08:00,63.9,51.8,29.89,NNE,20,0.0,4.0,28,0.04,,,0.04,meteohub,2013-05-20 10:08:00,
2013-05-20 05:13:00,63.7,50.7,29.89,NNE,20,0.0,4.0,28,0.04,,,0.04,meteohub,2013-05-20 10:13:00,
2013-05-20 05:18:00,63.5,49.6,29.89,NNE,20,0.0,0.0,28,0.00,,,0.04,meteohub,2013-05-20 10:18:00,
2013-05-20 05:23:00,63.5,49.8,29.89,NNE,20,0.0,0.0,29,0.00,,,0.04,meteohub,2013-05-20 10:23:00,
2013-05-20 05:28:00,63.5,49.1,29.89,NNE,20,0.0,0.0,29,0.00,,,0.04,meteohub,2013-05-20 10:28:00,
2013-05-20 05:33:00,63.5,49.5,29.89,NNE,20,0.0,0.0,30,0.00,,,0.04,meteohub,2013-05-20 10:33:00,
2013-05-20 05:38:00,63.3,49.6,29.89,NNE,20,0.0,0.0,30,0.00,,,0.04,meteohub,2013-05-20 10:38:00,
2013-05-20 05:43:00,63.3,49.6,29.89,NNE,20,0.0,0.0,30,0.00,,,0.04,meteohub,2013-05-20 10:43:00,
2013-05-20 05:48:00,63.1,49.5,29.89,NNE,20,0.0,0.0,31,0.00,,,0.04,meteohub,2013-05-20 10:48:00,
2013-05-20 05:53:00,63.1,49.1,29.89,SE,131,0.0,0.0,31,0.00,,,0.04,meteohub,2013-05-20 10:53:00,
2013-05-20 05:58:00,63.1,49.1,29.86,ESE,121,0.0,0.0,32,0.00,,,0.04,meteohub,2013-05-20 10:58:00,
2013-05-20 06:03:00,63.1,49.3,29.86,ESE,117,0.0,4.0,33,0.00,,,0.04,meteohub,2013-05-20 11:03:00,
2013-05-20 06:08:00,63.1,49.5,29.86,ESE,117,0.0,4.0,33,0.00,,,0.04,meteohub,2013-05-20 11:08:00,
2013-05-20 06:13:00,63.1,49.5,29.86,SE,134,0.0,4.0,33,0.00,,,0.04,meteohub,2013-05-20 11:13:00,
2013-05-20 06:18:00,63.1,49.1,29.86,SE,134,4.0,0.0,34,0.00,,,0.04,meteohub,2013-05-20 11:18:00,
2013-05-20 06:23:00,63.1,49.1,29.86,SE,124,0.0,4.0,34,0.00,,,0.04,meteohub,2013-05-20 11:23:00,
2013-05-20 06:29:00,63.3,49.1,29.89,SSW,192,0.0,5.0,34,0.00,,,0.04,meteohub,2013-05-20 11:29:00,
2013-05-20 06:34:00,63.3,49.1,29.89,South,174,0.0,5.0,34,0.00,,,0.04,meteohub,2013-05-20 11:34:00,
2013-05-20 06:39:00,63.3,49.1,29.89,ESE,109,0.0,5.0,34,0.00,,,0.04,meteohub,2013-05-20 11:39:00,
2013-05-20 06:44:00,63.5,48.9,29.89,SE,127,0.0,0.0,34,0.00,,,0.04,meteohub,2013-05-20 11:44:00,
2013-05-20 06:49:00,63.5,48.9,29.89,SE,127,0.0,0.0,34,0.00,,,0.04,meteohub,2013-05-20 11:49:00,
2013-05-20 06:54:00,63.7,49.5,29.89,SSW,200,0.0,0.0,34,0.00,,,0.04,meteohub,2013-05-20 11:54:00,
2013-05-20 06:59:00,63.7,49.6,29.92,SSW,201,0.0,4.0,35,0.00,,,0.04,meteohub,2013-05-20 11:59:00,
2013-05-20 07:04:00,63.7,49.8,29.92,SSW,196,0.0,4.0,35,0.00,,,0.04,meteohub,2013-05-20 12:04:00,
2013-05-20 07:09:00,63.7,49.8,29.92,WNW,299,3.0,6.0,35,0.08,,,0.12,meteohub,2013-05-20 12:09:00,
2013-05-20 07:14:00,63.5,49.8,29.92,SE,145,0.0,6.0,35,0.08,,,0.12,meteohub,2013-05-20 12:14:00,
2013-05-20 07:19:00,63.5,49.8,29.92,SE,145,0.0,6.0,35,0.08,,,0.12,meteohub,2013-05-20 12:19:00,
2013-05-20 07:24:00,63.7,49.8,29.92,SE,145,0.0,4.0,35,0.08,,,0.12,meteohub,2013-05-20 12:24:00,
2013-05-20 07:29:00,63.9,50.0,29.92,SE,126,0.0,0.0,35,0.13,,,0.17,meteohub,2013-05-20 12:29:00,
2013-05-20 07:34:00,63.9,50.0,29.92,SE,137,0.0,0.0,36,0.13,,,0.17,meteohub,2013-05-20 12:34:00,
2013-05-20 07:39:00,63.9,50.0,29.92,SE,129,0.0,3.0,36,0.13,,,0.17,meteohub,2013-05-20 12:39:00,
2013-05-20 07:44:00,63.9,50.0,29.92,SE,128,0.0,3.0,36,0.13,,,0.17,meteohub,2013-05-20 12:44:00,
2013-05-20 07:50:00,63.9,50.0,29.92,SE,125,0.0,3.0,36,0.13,,,0.17,meteohub,2013-05-20 12:50:00,
2013-05-20 07:55:00,63.9,50.0,29.92,SW,214,0.0,4.0,36,0.13,,,0.17,meteohub,2013-05-20 12:55:00,
2013-05-20 08:00:00,63.9,50.0,29.92,SSW,199,0.0,6.0,36,0.12,,,0.20,meteohub,2013-05-20 13:00:00,
2013-05-20 08:05:00,63.7,50.0,29.92,South,184,0.0,6.0,37,0.08,,,0.20,meteohub,2013-05-20 13:05:00,
2013-05-20 08:10:00,63.7,50.0,29.92,ENE,57,0.0,6.0,37,0.08,,,0.20,meteohub,2013-05-20 13:10:00,
2013-05-20 08:15:00,63.7,50.0,29.92,SSE,166,0.0,6.0,37,0.08,,,0.20,meteohub,2013-05-20 13:15:00,
2013-05-20 08:20:00,63.7,50.0,29.92,SSW,203,0.0,6.0,37,0.04,,,0.20,meteohub,2013-05-20 13:20:00,
2013-05-20 08:25:00,63.7,50.0,29.92,SE,129,0.0,2.0,38,0.04,,,0.20,meteohub,2013-05-20 13:25:00,
2013-05-20 08:30:00,63.7,50.5,29.92,ESE,104,0.0,0.0,38,0.04,,,0.20,meteohub,2013-05-20 13:30:00,
2013-05-20 08:35:00,63.7,50.5,29.92,ESE,120,0.0,0.0,38,0.04,,,0.20,meteohub,2013-05-20 13:35:00,
2013-05-20 08:40:00,63.9,50.5,29.92,East,95,0.0,0.0,38,0.04,,,0.20,meteohub,2013-05-20 13:40:00,
2013-05-20 08:45:00,63.9,50.5,29.92,East,89,0.0,0.0,38,0.04,,,0.20,meteohub,2013-05-20 13:45:00,
2013-05-20 08:50:00,64.2,50.7,29.92,South,187,0.0,0.0,39,0.04,,,0.20,meteohub,2013-05-20 13:50:00,
2013-05-20 08:55:00,64.4,50.7,29.92,SW,225,0.0,0.0,39,0.00,,,0.20,meteohub,2013-05-20 13:55:00,
2013-05-20 09:00:00,64.8,50.7,29.92,NW,306,0.0,0.0,39,0.00,,,0.20,meteohub,2013-05-20 14:00:00,
2013-05-20 09:06:00,65.3,50.7,29.92,South,173,0.0,0.0,40,0.00,,,0.20,meteohub,2013-05-20 14:06:00,
2013-05-20 09:11:00,65.8,50.7,29.92,ESE,122,0.0,0.0,40,0.00,,,0.20,meteohub,2013-05-20 14:11:00,
2013-05-20 09:16:00,66.4,50.7,29.89,SE,124,0.0,5.0,39,0.00,,,0.20,meteohub,2013-05-20 14:16:00,
2013-05-20 09:21:00,66.6,50.9,29.89,East,100,2.0,5.0,39,0.00,,,0.20,meteohub,2013-05-20 14:21:00,
2013-05-20 09:26:00,66.7,50.9,29.89,SE,126,0.0,5.0,39,0.00,,,0.20,meteohub,2013-05-20 14:26:00,
2013-05-20 09:31:00,66.9,50.9,29.89,East,96,0.0,4.0,39,0.00,,,0.20,meteohub,2013-05-20 14:31:00,
2013-05-20 09:36:00,67.1,50.9,29.89,South,184,0.0,3.0,40,0.00,,,0.20,meteohub,2013-05-20 14:36:00,
2013-05-20 09:41:00,67.8,51.1,29.89,SE,133,0.0,4.0,41,0.00,,,0.20,meteohub,2013-05-20 14:41:00,
2013-05-20 09:46:00,68.2,51.1,29.89,East,84,4.0,4.0,40,0.00,,,0.20,meteohub,2013-05-20 14:46:00,
2013-05-20 09:51:00,68.7,51.1,29.89,ESE,112,0.0,7.0,39,0.00,,,0.20,meteohub,2013-05-20 14:51:00,
2013-05-20 09:56:00,69.1,51.1,29.89,SE,124,0.0,7.0,38,0.00,,,0.20,meteohub,2013-05-20 14:56:00,
2013-05-20 10:01:00,69.3,51.1,29.89,SW,218,0.0,7.0,36,0.00,,,0.20,meteohub,2013-05-20 15:01:00,
2013-05-20 10:06:00,69.1,51.1,29.89,ESE,109,0.0,0.0,34,0.00,,,0.20,meteohub,2013-05-20 15:06:00,
2013-05-20 10:11:00,69.1,51.1,29.89,South,182,0.0,5.0,33,0.00,,,0.20,meteohub,2013-05-20 15:11:00,
2013-05-20 10:16:00,69.3,51.1,29.89,SE,143,6.0,6.0,32,0.00,,,0.20,meteohub,2013-05-20 15:16:00,
2013-05-20 10:21:00,69.4,51.1,29.89,SE,132,0.0,6.0,31,0.00,,,0.20,meteohub,2013-05-20 15:21:00,
2013-05-20 10:26:00,70.0,51.1,29.89,ESE,119,0.0,6.0,29,0.00,,,0.20,meteohub,2013-05-20 15:26:00,
2013-05-20 10:32:00,70.7,51.3,29.89,ESE,102,3.0,8.0,24,0.00,,,0.20,meteohub,2013-05-20 15:32:00,
2013-05-20 10:37:00,71.2,51.3,29.89,ESE,112,6.0,8.0,23,0.00,,,0.20,meteohub,2013-05-20 15:37:00,
2013-05-20 10:42:00,71.6,51.3,29.89,East,88,2.0,8.0,16,0.00,,,0.20,meteohub,2013-05-20 15:42:00,
2013-05-20 10:47:00,72.5,51.4,29.89,South,189,3.0,8.0,16,0.00,,,0.20,meteohub,2013-05-20 15:47:00,
2013-05-20 10:52:00,73.6,51.4,29.89,SW,217,4.0,8.0,13,0.00,,,0.20,meteohub,2013-05-20 15:52:00,
2013-05-20 10:57:00,73.8,51.4,29.86,ESE,113,5.0,8.0,11,0.00,,,0.20,meteohub,2013-05-20 15:57:00,
2013-05-20 11:02:00,73.9,51.4,29.86,SE,125,3.0,9.0,11,0.00,,,0.20,meteohub,2013-05-20 16:02:00,
2013-05-20 11:07:00,74.5,51.4,29.86,SSW,200,4.0,9.0,8,0.00,,,0.20,meteohub,2013-05-20 16:07:00,
2013-05-20 11:12:00,75.4,51.4,29.86,SE,130,4.0,8.0,8,0.00,,,0.20,meteohub,2013-05-20 16:12:00,
2013-05-20 11:17:00,76.1,51.4,29.86,SSW,207,6.0,8.0,8,0.00,,,0.20,meteohub,2013-05-20 16:17:00,
2013-05-20 11:22:00,76.3,51.6,29.86,ESE,108,6.0,8.0,8,0.00,,,0.20,meteohub,2013-05-20 16:22:00,
2013-05-20 11:27:00,76.1,51.6,29.86,ESE,114,4.0,8.0,8,0.00,,,0.20,meteohub,2013-05-20 16:27:00,
2013-05-20 11:32:00,76.3,51.6,29.86,ESE,117,8.0,8.0,8,0.00,,,0.20,meteohub,2013-05-20 16:32:00,
2013-05-20 11:37:00,76.5,51.6,29.86,South,185,4.0,8.0,8,0.00,,,0.20,meteohub,2013-05-20 16:37:00,
2013-05-20 11:42:00,76.5,51.8,29.86,SE,130,3.0,9.0,8,0.00,,,0.20,meteohub,2013-05-20 16:42:00,
2013-05-20 11:47:00,76.5,51.8,29.86,ESE,113,5.0,13.0,8,0.00,,,0.20,meteohub,2013-05-20 16:47:00,
2013-05-20 11:52:00,77.0,52.0,29.86,SE,127,3.0,13.0,8,0.00,,,0.20,meteohub,2013-05-20 16:52:00,
2013-05-20 11:58:00,77.4,52.0,29.86,SSE,149,4.0,13.0,8,0.00,,,0.20,meteohub,2013-05-20 16:58:00,
2013-05-20 12:03:00,77.5,52.2,29.86,ESE,117,4.0,10.0,8,0.00,,,0.20,meteohub,2013-05-20 17:03:00,
2013-05-20 12:08:00,77.9,52.2,29.86,SSW,193,3.0,9.0,8,0.00,,,0.20,meteohub,2013-05-20 17:08:00,
2013-05-20 12:13:00,78.6,52.2,29.86,ESE,118,4.0,9.0,8,0.00,,,0.20,meteohub,2013-05-20 17:13:00,
2013-05-20 12:18:00,79.2,52.3,29.86,East,95,6.0,9.0,7,0.00,,,0.20,meteohub,2013-05-20 17:18:00,
2013-05-20 12:23:00,79.2,52.3,29.86,ESE,112,4.0,8.0,7,0.00,,,0.20,meteohub,2013-05-20 17:23:00,
2013-05-20 12:28:00,79.7,52.5,29.86,South,179,0.0,11.0,7,0.00,,,0.20,meteohub,2013-05-20 17:28:00,
2013-05-20 12:33:00,80.2,52.5,29.86,NE,54,6.0,11.0,7,0.00,,,0.20,meteohub,2013-05-20 17:33:00,
2013-05-20 12:38:00,79.9,52.7,29.86,WSW,237,3.0,11.0,7,0.00,,,0.20,meteohub,2013-05-20 17:38:00,
2013-05-20 12:43:00,79.3,52.7,29.86,SW,214,3.0,8.0,7,0.00,,,0.20,meteohub,2013-05-20 17:43:00,
2013-05-20 12:48:00,79.2,53.2,29.86,ESE,107,2.0,8.0,7,0.00,,,0.20,meteohub,2013-05-20 17:48:00,
2013-05-20 12:53:00,78.8,53.4,29.86,South,169,3.0,6.0,7,0.00,,,0.20,meteohub,2013-05-20 17:53:00,
2013-05-20 12:58:00,78.4,53.4,29.89,ESE,103,0.0,6.0,8,0.00,,,0.20,meteohub,2013-05-20 17:58:00,
2013-05-20 13:03:00,78.3,53.4,29.89,WSW,246,2.0,6.0,8,0.00,,,0.20,meteohub,2013-05-20 18:03:00,
2013-05-20 13:08:00,78.3,53.4,29.89,SSE,165,3.0,6.0,8,0.00,,,0.20,meteohub,2013-05-20 18:08:00,
2013-05-20 13:14:00,77.9,53.1,29.89,South,183,6.0,6.0,8,0.00,,,0.20,meteohub,2013-05-20 18:14:00,
2013-05-20 13:19:00,77.9,53.6,29.89,SW,221,2.0,6.0,8,0.00,,,0.20,meteohub,2013-05-20 18:19:00,
2013-05-20 13:24:00,78.3,53.6,29.89,SW,233,4.0,6.0,8,0.00,,,0.20,meteohub,2013-05-20 18:24:00,
2013-05-20 13:29:00,78.8,53.8,29.89,SW,228,3.0,6.0,7,0.00,,,0.20,meteohub,2013-05-20 18:29:00,
2013-05-20 13:34:00,79.7,53.8,29.89,NNE,29,2.0,8.0,7,0.00,,,0.20,meteohub,2013-05-20 18:34:00,
2013-05-20 13:39:00,80.2,54.0,29.89,South,175,3.0,8.0,7,0.00,,,0.20,meteohub,2013-05-20 18:39:00,
2013-05-20 13:44:00,80.6,54.0,29.89,ESE,119,3.0,6.0,7,0.00,,,0.20,meteohub,2013-05-20 18:44:00,
2013-05-20 13:49:00,80.6,54.1,29.89,South,178,0.0,6.0,7,0.00,,,0.20,meteohub,2013-05-20 18:49:00,
2013-05-20 13:54:00,80.8,54.1,29.89,SSW,193,0.0,6.0,7,0.00,,,0.20,meteohub,2013-05-20 18:54:00,
2013-05-20 13:59:00,80.6,54.3,29.86,WSW,247,3.0,6.0,7,0.00,,,0.20,meteohub,2013-05-20 18:59:00,
2013-05-20 14:04:00,79.9,54.3,29.86,WSW,253,3.0,6.0,7,0.00,,,0.20,meteohub,2013-05-20 19:04:00,
2013-05-20 14:09:00,79.5,54.3,29.86,SSW,197,3.0,6.0,7,0.00,,,0.20,meteohub,2013-05-20 19:09:00,
2013-05-20 14:14:00,79.2,54.3,29.86,SW,217,3.0,6.0,7,0.00,,,0.20,meteohub,2013-05-20 19:14:00,
2013-05-20 14:20:00,78.8,54.3,29.86,SE,142,2.0,6.0,7,0.00,,,0.20,meteohub,2013-05-20 19:20:00,
2013-05-20 14:25:00,78.6,54.3,29.86,ESE,109,0.0,6.0,8,0.00,,,0.20,meteohub,2013-05-20 19:25:00,
2013-05-20 14:30:00,78.4,54.3,29.86,SSW,213,3.0,5.0,8,0.00,,,0.20,meteohub,2013-05-20 19:30:00,
2013-05-20 14:35:00,78.1,54.3,29.86,SSW,195,3.0,5.0,8,0.00,,,0.20,meteohub,2013-05-20 19:35:00,
2013-05-20 14:40:00,77.7,54.3,29.86,SSW,204,3.0,6.0,8,0.00,,,0.20,meteohub,2013-05-20 19:40:00,
2013-05-20 14:45:00,77.5,55.0,29.86,SW,215,3.0,6.0,8,0.00,,,0.20,meteohub,2013-05-20 19:45:00,
2013-05-20 14:50:00,77.2,54.5,29.86,SW,224,2.0,6.0,8,0.00,,,0.20,meteohub,2013-05-20 19:50:00,
2013-05-20 14:55:00,77.0,54.5,29.86,SE,127,0.0,4.0,8,0.00,,,0.20,meteohub,2013-05-20 19:55:00,
2013-05-20 15:00:00,77.0,54.5,29.86,SSW,207,0.0,4.0,8,0.00,,,0.20,meteohub,2013-05-20 20:00:00,
2013-05-20 15:05:00,77.2,54.5,29.86,SE,129,0.0,4.0,8,0.00,,,0.20,meteohub,2013-05-20 20:05:00,
2013-05-20 15:10:00,77.2,54.5,29.86,SSW,206,2.0,4.0,8,0.00,,,0.20,meteohub,2013-05-20 20:10:00,
2013-05-20 15:15:00,77.5,54.5,29.86,SW,228,0.0,4.0,8,0.00,,,0.20,meteohub,2013-05-20 20:15:00,
2013-05-20 15:20:00,77.9,54.5,29.86,ESE,114,3.0,4.0,8,0.00,,,0.20,meteohub,2013-05-20 20:20:00,
2013-05-20 15:25:00,77.7,55.2,29.86,ESE,107,0.0,4.0,8,0.00,,,0.20,meteohub,2013-05-20 20:25:00,
2013-05-20 15:30:00,77.7,54.5,29.83,SSE,152,4.0,4.0,8,0.00,,,0.20,meteohub,2013-05-20 20:30:00,
2013-05-20 15:36:00,77.4,54.5,29.83,ESE,102,3.0,4.0,8,0.00,,,0.20,meteohub,2013-05-20 20:36:00,
2013-05-20 15:41:00,77.2,55.2,29.83,ESE,114,0.0,4.0,8,0.00,,,0.20,meteohub,2013-05-20 20:41:00,
2013-05-20 15:46:00,77.0,55.4,29.83,SE,126,0.0,4.0,8,0.00,,,0.20,meteohub,2013-05-20 20:46:00,
2013-05-20 15:51:00,77.0,55.4,29.83,ESE,120,0.0,4.0,8,0.00,,,0.20,meteohub,2013-05-20 20:51:00,
2013-05-20 15:56:00,77.0,55.4,29.83,ESE,118,3.0,5.0,8,0.00,,,0.20,meteohub,2013-05-20 20:56:00,
2013-05-20 16:01:00,77.2,55.4,29.83,SE,134,0.0,5.0,10,0.00,,,0.20,meteohub,2013-05-20 21:01:00,
2013-05-20 16:06:00,77.2,55.4,29.83,East,100,0.0,5.0,10,0.00,,,0.20,meteohub,2013-05-20 21:06:00,
2013-05-20 16:11:00,77.4,55.4,29.83,SE,133,0.0,4.0,10,0.00,,,0.20,meteohub,2013-05-20 21:11:00,
2013-05-20 16:16:00,77.4,55.4,29.83,East,100,0.0,4.0,10,0.00,,,0.20,meteohub,2013-05-20 21:16:00,
2013-05-20 16:21:00,77.4,55.4,29.83,SSE,166,3.0,3.0,10,0.00,,,0.20,meteohub,2013-05-20 21:21:00,
2013-05-20 16:26:00,77.2,55.4,29.83,SE,130,4.0,4.0,10,0.00,,,0.20,meteohub,2013-05-20 21:26:00,
2013-05-20 16:31:00,77.2,55.4,29.83,SSW,201,3.0,4.0,10,0.00,,,0.20,meteohub,2013-05-20 21:31:00,
2013-05-20 16:36:00,76.8,55.4,29.83,SW,225,2.0,6.0,10,0.00,,,0.20,meteohub,2013-05-20 21:36:00,
2013-05-20 16:41:00,76.3,55.4,29.83,SSW,202,3.0,6.0,13,0.00,,,0.20,meteohub,2013-05-20 21:41:00,
2013-05-20 16:46:00,75.9,55.4,29.80,SW,218,0.0,8.0,13,0.00,,,0.20,meteohub,2013-05-20 21:46:00,
2013-05-20 16:52:00,75.7,55.4,29.80,SE,131,0.0,8.0,15,0.00,,,0.20,meteohub,2013-05-20 21:52:00,
2013-05-20 16:57:00,75.6,55.4,29.80,ESE,108,0.0,6.0,18,0.00,,,0.20,meteohub,2013-05-20 21:57:00,
2013-05-20 17:02:00,75.7,55.4,29.80,ESE,109,0.0,4.0,20,0.00,,,0.20,meteohub,2013-05-20 22:02:00,
2013-05-20 17:07:00,75.7,56.1,29.80,SSW,198,0.0,4.0,20,0.00,,,0.20,meteohub,2013-05-20 22:07:00,
2013-05-20 17:12:00,75.9,56.1,29.80,SE,133,0.0,0.0,21,0.00,,,0.20,meteohub,2013-05-20 22:12:00,
2013-05-20 17:17:00,76.3,55.4,29.80,SSW,211,0.0,0.0,21,0.00,,,0.20,meteohub,2013-05-20 22:17:00,
2013-05-20 17:22:00,76.8,54.5,29.80,ESE,118,3.0,0.0,21,0.00,,,0.20,meteohub,2013-05-20 22:22:00,
2013-05-20 17:27:00,77.2,53.4,29.77,SSW,210,0.0,3.0,20,0.00,,,0.20,meteohub,2013-05-20 22:27:00,
2013-05-20 17:32:00,77.7,53.2,29.77,South,174,0.0,4.0,20,0.00,,,0.20,meteohub,2013-05-20 22:32:00,
2013-05-20 17:37:00,78.3,53.2,29.77,SE,140,0.0,5.0,20,0.00,,,0.20,meteohub,2013-05-20 22:37:00,
2013-05-20 17:42:00,78.4,53.4,29.77,ESE,110,0.0,5.0,15,0.00,,,0.20,meteohub,2013-05-20 22:42:00,
2013-05-20 17:47:00,78.3,52.7,29.77,ESE,123,0.0,5.0,13,0.00,,,0.20,meteohub,2013-05-20 22:47:00,
2013-05-20 17:53:00,78.3,53.2,29.77,NE,44,3.0,4.0,13,0.00,,,0.20,meteohub,2013-05-20 22:53:00,
2013-05-20 17:58:00,78.3,53.2,29.77,SE,139,0.0,4.0,10,0.00,,,0.20,meteohub,2013-05-20 22:58:00,
2013-05-20 18:03:00,78.1,53.2,29.77,SW,216,3.0,4.0,10,0.00,,,0.20,meteohub,2013-05-20 23:03:00,
2013-05-20 18:08:00,78.1,52.3,29.77,SSW,192,0.0,4.0,10,0.00,,,0.20,meteohub,2013-05-20 23:08:00,
2013-05-20 18:13:00,78.1,52.9,29.77,SW,228,0.0,4.0,10,0.00,,,0.20,meteohub,2013-05-20 23:13:00,
2013-05-20 18:18:00,77.9,53.1,29.77,WSW,237,0.0,4.0,10,0.00,,,0.20,meteohub,2013-05-20 23:18:00,
2013-05-20 18:23:00,77.9,53.2,29.77,South,183,0.0,4.0,10,0.00,,,0.20,meteohub,2013-05-20 23:23:00,
2013-05-20 18:28:00,77.9,53.2,29.74,SSE,147,0.0,4.0,10,0.00,,,0.20,meteohub,2013-05-20 23:28:00,
2013-05-20 18:33:00,77.9,52.3,29.74,South,169,0.0,0.0,10,0.00,,,0.20,meteohub,2013-05-20 23:33:00,
2013-05-20 18:38:00,77.7,52.7,29.74,SSW,208,0.0,0.0,10,0.00,,,0.20,meteohub,2013-05-20 23:38:00,
2013-05-20 18:43:00,77.9,52.9,29.74,ESE,111,0.0,3.0,10,0.00,,,0.20,meteohub,2013-05-20 23:43:00,
2013-05-20 18:48:00,77.9,52.9,29.74,SSE,162,0.0,3.0,10,0.00,,,0.20,meteohub,2013-05-20 23:48:00,
2013-05-20 18:53:00,77.9,53.1,29.74,SSW,212,0.0,4.0,10,0.00,,,0.20,meteohub,2013-05-20 23:53:00,
2013-05-20 18:58:00,77.7,52.7,29.74,ESE,106,3.0,5.0,10,0.00,,,0.20,meteohub,2013-05-20 23:58:00,
2013-05-20 19:03:00,77.7,52.5,29.74,ESE,105,3.0,5.0,10,0.00,,,0.20,meteohub,2013-05-21 00:03:00,
2013-05-20 19:08:00,77.7,52.5,29.74,ESE,116,4.0,6.0,10,0.00,,,0.20,meteohub,2013-05-21 00:08:00,
2013-05-20 19:14:00,77.5,52.7,29.74,ESE,117,0.0,6.0,10,0.00,,,0.20,meteohub,2013-05-21 00:14:00,
2013-05-20 19:19:00,77.5,52.7,29.74,ESE,118,0.0,6.0,10,0.00,,,0.20,meteohub,2013-05-21 00:19:00,
2013-05-20 19:24:00,77.4,52.9,29.74,ESE,120,0.0,6.0,10,0.00,,,0.20,meteohub,2013-05-21 00:24:00,
2013-05-20 19:29:00,77.2,53.1,29.74,SE,124,3.0,6.0,10,0.00,,,0.20,meteohub,2013-05-21 00:29:00,
2013-05-20 19:34:00,77.2,53.1,29.74,SSW,207,0.0,6.0,10,0.00,,,0.20,meteohub,2013-05-21 00:34:00,
2013-05-20 19:39:00,77.2,53.1,29.74,East,88,2.0,4.0,10,0.00,,,0.20,meteohub,2013-05-21 00:39:00,
2013-05-20 19:44:00,77.2,52.7,29.74,SE,144,2.0,5.0,10,0.00,,,0.20,meteohub,2013-05-21 00:44:00,
2013-05-20 19:49:00,77.2,52.5,29.74,SE,128,0.0,5.0,10,0.00,,,0.20,meteohub,2013-05-21 00:49:00,
2013-05-20 19:54:00,77.2,52.7,29.74,SE,137,3.0,5.0,10,0.00,,,0.20,meteohub,2013-05-21 00:54:00,
2013-05-20 19:59:00,77.2,53.2,29.74,SE,132,3.0,5.0,10,0.00,,,0.20,meteohub,2013-05-21 00:59:00,
2013-05-20 20:04:00,77.2,53.4,29.74,East,91,5.0,6.0,10,0.00,,,0.20,meteohub,2013-05-21 01:04:00,
2013-05-20 20:09:00,77.4,53.4,29.74,ENE,75,0.0,6.0,10,0.00,,,0.20,meteohub,2013-05-21 01:09:00,
2013-05-20 20:15:00,77.4,53.4,29.74,SSE,148,4.0,6.0,10,0.00,,,0.20,meteohub,2013-05-21 01:15:00,
2013-05-20 20:20:00,77.4,52.5,29.74,SW,218,2.0,5.0,10,0.00,,,0.20,meteohub,2013-05-21 01:20:00,
2013-05-20 20:25:00,77.4,52.9,29.74,SW,218,3.0,4.0,10,0.00,,,0.20,meteohub,2013-05-21 01:25:00,
2013-05-20 20:30:00,77.5,53.1,29.74,SSW,200,2.0,4.0,10,0.00,,,0.20,meteohub,2013-05-21 01:30:00,
2013-05-20 20:35:00,77.5,53.1,29.74,SE,140,3.0,7.0,10,0.00,,,0.20,meteohub,2013-05-21 01:35:00,
2013-05-20 20:40:00,77.5,53.2,29.74,SE,146,0.0,7.0,10,0.00,,,0.20,meteohub,2013-05-21 01:40:00,
2013-05-20 20:45:00,77.5,54.0,29.71,ENE,74,3.0,4.0,10,0.00,,,0.20,meteohub,2013-05-21 01:45:00,
2013-05-20 20:50:00,77.5,54.0,29.71,SSW,206,4.0,6.0,10,0.00,,,0.20,meteohub,2013-05-21 01:50:00,
2013-05-20 20:55:00,77.5,54.1,29.71,SSW,210,3.0,6.0,10,0.00,,,0.20,meteohub,2013-05-21 01:55:00,
2013-05-20 21:00:00,77.5,54.1,29.71,SSW,211,3.0,6.0,10,0.00,,,0.20,meteohub,2013-05-21 02:00:00,
2013-05-20 21:05:00,77.5,54.1,29.71,ESE,102,4.0,6.0,10,0.00,,,0.20,meteohub,2013-05-21 02:05:00,
2013-05-20 21:10:00,77.5,53.6,29.71,SE,124,5.0,8.0,10,0.00,,,0.20,meteohub,2013-05-21 02:10:00,
2013-05-20 21:15:00,77.5,53.1,29.71,SSE,167,3.0,8.0,10,0.00,,,0.20,meteohub,2013-05-21 02:15:00,
2013-05-20 21:21:00,77.5,53.6,29.71,East,98,3.0,7.0,10,0.00,,,0.20,meteohub,2013-05-21 02:21:00,
2013-05-20 21:26:00,77.5,53.8,29.71,SSE,148,4.0,7.0,10,0.00,,,0.20,meteohub,2013-05-21 02:26:00,
2013-05-20 21:31:00,77.5,54.5,29.74,South,170,4.0,7.0,10,0.00,,,0.20,meteohub,2013-05-21 02:31:00,
2013-05-20 21:36:00,77.7,54.5,29.74,ESE,120,2.0,6.0,10,0.00,,,0.20,meteohub,2013-05-21 02:36:00,
2013-05-20 21:41:00,77.7,54.5,29.74,SW,232,3.0,6.0,10,0.00,,,0.20,meteohub,2013-05-21 02:41:00,
2013-05-20 21:46:00,77.9,53.6,29.74,East,100,5.0,8.0,10,0.00,,,0.20,meteohub,2013-05-21 02:46:00,
2013-05-20 21:51:00,77.9,53.6,29.74,SSW,211,4.0,8.0,10,0.00,,,0.20,meteohub,2013-05-21 02:51:00,
2013-05-20 21:56:00,78.1,54.3,29.74,SW,222,4.0,8.0,10,0.00,,,0.20,meteohub,2013-05-21 02:56:00,
2013-05-20 22:01:00,78.1,54.3,29.77,SSW,198,3.0,6.0,10,0.00,,,0.20,meteohub,2013-05-21 03:01:00,
2013-05-20 22:06:00,78.3,54.3,29.77,SSW,198,4.0,6.0,10,0.00,,,0.20,meteohub,2013-05-21 03:06:00,
2013-05-20 22:11:00,78.4,54.5,29.77,SW,226,3.0,6.0,10,0.00,,,0.20,meteohub,2013-05-21 03:11:00,
2013-05-20 22:16:00,78.4,54.5,29.77,WNW,282,0.0,6.0,10,0.00,,,0.20,meteohub,2013-05-21 03:16:00,
2013-05-20 22:21:00,78.4,54.7,29.77,WNW,296,6.0,6.0,8,0.00,,,0.20,meteohub,2013-05-21 03:21:00,
2013-05-20 22:27:00,74.1,54.7,29.77,WSW,252,11.0,13.0,8,0.00,,,0.20,meteohub,2013-05-21 03:27:00,
2013-05-20 22:32:00,70.2,54.5,29.83,North,353,8.0,18.0,9,0.00,,,0.20,meteohub,2013-05-21 03:32:00,
2013-05-20 22:37:00,67.8,52.9,29.83,NNE,20,5.0,18.0,12,0.00,,,0.20,meteohub,2013-05-21 03:37:00,
2013-05-20 22:42:00,66.7,52.0,29.83,SW,226,4.0,18.0,17,0.00,,,0.20,meteohub,2013-05-21 03:42:00,
2013-05-20 22:47:00,66.2,51.1,29.89,ENE,72,3.0,11.0,20,0.08,,,0.29,meteohub,2013-05-21 03:47:00,
2013-05-20 22:52:00,65.8,50.9,29.89,South,189,4.0,11.0,23,0.13,,,0.33,meteohub,2013-05-21 03:52:00,
2013-05-20 22:58:00,64.9,51.6,29.92,SSW,204,3.0,11.0,25,0.29,,,0.50,meteohub,2013-05-21 03:58:00,
2013-05-20 23:01:00,64.8,51.8,29.92,ESE,123,3.0,8.0,26,0.50,,,0.70,meteohub,2013-05-21 04:01:00,
2013-05-20 23:02:00,64.8,51.8,29.92,SSE,164,0.0,8.0,26,0.50,,,0.70,meteohub,2013-05-21 04:02:00,
2013-05-20 23:05:00,64.6,51.8,29.92,SE,145,0.0,8.0,27,0.50,,,0.70,meteohub,2013-05-21 04:05:00,
2013-05-20 23:10:00,64.4,51.1,29.92,West,270,0.0,4.0,28,0.58,,,0.79,meteohub,2013-05-21 04:10:00,
2013-05-20 23:15:00,64.4,50.7,29.89,WSW,257,0.0,8.0,29,0.63,,,0.83,meteohub,2013-05-21 04:15:00,
2013-05-20 23:20:00,64.4,50.7,29.89,SE,146,0.0,8.0,30,0.63,,,0.83,meteohub,2013-05-21 04:20:00,
2013-05-20 23:25:00,64.4,51.4,29.89,SSW,195,0.0,8.0,31,0.63,,,0.83,meteohub,2013-05-21 04:25:00,
2013-05-20 23:30:00,64.4,51.4,29.89,West,269,0.0,4.0,32,0.67,,,0.83,meteohub,2013-05-21 04:30:00,
2013-05-20 23:35:00,64.4,51.4,29.89,NW,308,0.0,4.0,33,0.67,,,0.87,meteohub,2013-05-21 04:35:00,
2013-05-20 23:40:00,64.6,50.5,29.89,SSW,195,0.0,2.0,33,0.67,,,0.87,meteohub,2013-05-21 04:40:00,
2013-05-20 23:45:00,64.6,51.1,29.86,NNE,29,0.0,2.0,33,0.58,,,0.87,meteohub,2013-05-21 04:45:00,
2013-05-20 23:50:00,64.6,51.3,29.86,NNE,29,0.0,0.0,33,0.46,,,0.87,meteohub,2013-05-21 04:50:00,
2013-05-20 23:55:00,64.6,51.3,29.86,NNE,29,0.0,0.0,34,0.33,,,0.91,meteohub,2013-05-21 04:55:00,